When you browse on this site, cookies collect data to enhance your experience and personalize the content and advertising you see.
Visit our Privacy Policy to learn more. By continuing to use the site, you agree to this use of cookies and data.
  • Em Portugal
  • Lista de países
  • Para 7 dias
  • Temperatura da água
  • Mapas de satélite
  • Mapa do tempo
  • Widgets de tempo
  • user-avatar
    Iniciar Sessão

    Previsão horária em Klonowice

    Hoje, 12 Dezembro, Quarta-feira

    Tempo Temperatura Precipitação Vento Pressão Humidade
    00:00 -1°C° 0 mm 2 m/s 750 mmHg 90%
    01:00 -1°C° 0 mm 2 m/s 751 mmHg 90%
    02:00 -1°C° 0 mm 2 m/s 751 mmHg 90%
    03:00 -1°C° 0 mm 2 m/s 752 mmHg 89%
    04:00 -1°C° 0 mm 2 m/s 752 mmHg 89%
    05:00 -1°C° 0 mm 2 m/s 752 mmHg 89%
    06:00 +1°C° 0 mm 1 m/s 753 mmHg 90%
    07:00 0°C° 0 mm 1 m/s 753 mmHg 90%
    08:00 +1°C° 0 mm 1 m/s 754 mmHg 88%
    09:00 +1°C° 0 mm 1 m/s 754 mmHg 87%
    10:00 +2°C° 0 mm 1 m/s 755 mmHg 85%
    11:00 +1°C° 0 mm 2 m/s 755 mmHg 84%
    12:00 +2°C° 0 mm 2 m/s 755 mmHg 83%
    13:00 +2°C° 0 mm 2 m/s 755 mmHg 82%
    14:00 +2°C° 0 mm 2 m/s 755 mmHg 85%
    15:00 +1°C° 0 mm 2 m/s 756 mmHg 88%
    16:00 -1°C° 0 mm 2 m/s 756 mmHg 91%
    17:00 -1°C° 0 mm 2 m/s 756 mmHg 91%
    18:00 -1°C° 0 mm 2 m/s 756 mmHg 92%
    19:00 -1°C° 0 mm 2 m/s 756 mmHg 92%
    20:00 -1°C° 0 mm 2 m/s 756 mmHg 92%
    21:00 -1°C° 0 mm 2 m/s 756 mmHg 92%
    22:00 -1°C° 0 mm 2 m/s 756 mmHg 92%
    23:00 -1°C° 0 mm 2 m/s 757 mmHg 92%

    Amanhã, 13 Dezembro, Quinta-feira

    Tempo Temperatura Precipitação Vento Pressão Humidade
    00:00 -1°C° 0 mm 2 m/s 757 mmHg 93%
    01:00 -1°C° 0 mm 2 m/s 757 mmHg 93%
    02:00 -1°C° 0 mm 2 m/s 756 mmHg 92%
    03:00 -1°C° 0 mm 2 m/s 756 mmHg 91%
    04:00 -1°C° 0 mm 2 m/s 756 mmHg 90%
    05:00 -2°C° 0 mm 2 m/s 756 mmHg 89%
    06:00 -2°C° 0 mm 2 m/s 756 mmHg 88%
    07:00 -2°C° 0 mm 2 m/s 756 mmHg 87%
    08:00 -1°C° 0 mm 2 m/s 756 mmHg 85%
    09:00 +1°C° 0 mm 1 m/s 756 mmHg 84%
    10:00 +1°C° 0 mm 1 m/s 756 mmHg 83%
    11:00 +1°C° 0 mm 1 m/s 756 mmHg 81%
    12:00 +1°C° 0 mm 1 m/s 756 mmHg 80%
    13:00 +2°C° 0 mm 1 m/s 756 mmHg 79%
    14:00 +1°C° 0 mm 1 m/s 756 mmHg 82%
    15:00 +1°C° 0 mm 1 m/s 756 mmHg 85%
    16:00 0°C° 0 mm 1 m/s 756 mmHg 88%
    17:00 0°C° 0 mm 1 m/s 756 mmHg 89%
    18:00 -2°C° 0 mm 2 m/s 756 mmHg 90%
    19:00 -3°C° 0 mm 2 m/s 756 mmHg 91%
    20:00 -3°C° 0 mm 2 m/s 756 mmHg 90%
    21:00 -3°C° 0 mm 2 m/s 757 mmHg 89%
    22:00 -3°C° 0 mm 2 m/s 757 mmHg 89%
    23:00 -3°C° 0 mm 2 m/s 757 mmHg 88%

    Depois de amanhã, 14 Dezembro, Sexta-feira

    Tempo Temperatura Precipitação Vento Pressão Humidade
    00:00 -3°C° 0 mm 2 m/s 757 mmHg 88%
    01:00 -1°C° 0 mm 1 m/s 757 mmHg 88%
    02:00 -1°C° 0 mm 1 m/s 757 mmHg 88%
    03:00 -1°C° 0 mm 1 m/s 757 mmHg 88%
    04:00 -1°C° 0 mm 1 m/s 757 mmHg 89%
    05:00 -1°C° 0 mm 1 m/s 757 mmHg 89%
    06:00 -1°C° 0 mm 1 m/s 757 mmHg 89%
    07:00 -3°C° 0 mm 2 m/s 757 mmHg 89%
    08:00 -3°C° 0 mm 2 m/s 758 mmHg 87%
    09:00 -3°C° 0 mm 2 m/s 758 mmHg 85%
    10:00 -2°C° 0 mm 2 m/s 758 mmHg 83%
    11:00 -2°C° 0 mm 2 m/s 758 mmHg 81%
    12:00 -2°C° 0 mm 2 m/s 758 mmHg 79%
    13:00 -2°C° 0 mm 2 m/s 758 mmHg 76%
    14:00 -2°C° 0 mm 2 m/s 758 mmHg 79%
    15:00 -3°C° 0 mm 2 m/s 758 mmHg 81%
    16:00 -3°C° 0 mm 2 m/s 758 mmHg 84%
    17:00 -3°C° 0 mm 2 m/s 759 mmHg 84%
    18:00 -3°C° 0 mm 2 m/s 759 mmHg 85%
    19:00 -3°C° 0 mm 2 m/s 759 mmHg 86%
    20:00 -3°C° 0 mm 2 m/s 759 mmHg 86%
    21:00 -3°C° 0 mm 2 m/s 759 mmHg 86%
    22:00 -1°C° 0 mm 1 m/s 760 mmHg 86%
    23:00 -1°C° 0 mm 1 m/s 760 mmHg 86%

    15 Dezembro, Sábado

    Tempo Temperatura Precipitação Vento Pressão Humidade
    00:00 -1°C° 0 mm 1 m/s 760 mmHg 87%
    01:00 -1°C° 0 mm 1 m/s 760 mmHg 87%
    02:00 -1°C° 0 mm 1 m/s 760 mmHg 88%
    03:00 -3°C° 0 mm 2 m/s 760 mmHg 89%
    04:00 -4°C° 0 mm 2 m/s 760 mmHg 89%
    05:00 -4°C° 0 mm 2 m/s 760 mmHg 90%
    06:00 -1°C° 0 mm 1 m/s 760 mmHg 90%
    07:00 -1°C° 0 mm 1 m/s 760 mmHg 91%
    08:00 -1°C° 0 mm 1 m/s 761 mmHg 90%
    09:00 -1°C° 0 mm 1 m/s 761 mmHg 89%
    10:00 0°C° 0 mm 1 m/s 762 mmHg 89%
    11:00 0°C° 0 mm 1 m/s 762 mmHg 88%
    12:00 -2°C° 0 mm 2 m/s 762 mmHg 86%
    13:00 -1°C° 0 mm 2 m/s 762 mmHg 85%
    14:00 -2°C° 0 mm 2 m/s 762 mmHg 88%
    15:00 -2°C° 0 mm 2 m/s 762 mmHg 90%
    16:00 -3°C° 0 mm 2 m/s 762 mmHg 92%
    17:00 -3°C° 0 mm 2 m/s 762 mmHg 92%
    18:00 -3°C° 0 mm 2 m/s 762 mmHg 93%
    19:00 -3°C° 0 mm 2 m/s 762 mmHg 93%
    20:00 -3°C° 0 mm 2 m/s 762 mmHg 92%
    21:00 -3°C° 0 mm 2 m/s 762 mmHg 92%
    22:00 -3°C° 0 mm 2 m/s 762 mmHg 91%
    23:00 -3°C° 0 mm 2 m/s 762 mmHg 90%

    16 Dezembro, Domingo

    Tempo Temperatura Precipitação Vento Pressão Humidade
    00:00 -3°C° 0 mm 2 m/s 762 mmHg 89%
    01:00 -3°C° 0 mm 2 m/s 762 mmHg 88%
    02:00 -4°C° 0 mm 2 m/s 762 mmHg 88%
    03:00 -4°C° 0 mm 2 m/s 762 mmHg 88%
    04:00 -5°C° 0 mm 3 m/s 761 mmHg 88%
    05:00 -5°C° 0 mm 3 m/s 761 mmHg 88%
    06:00 -5°C° 0 mm 3 m/s 761 mmHg 87%
    07:00 -5°C° 0 mm 3 m/s 761 mmHg 87%
    08:00 -4°C° 0 mm 4 m/s 761 mmHg 84%
    09:00 -4°C° 0 mm 4 m/s 760 mmHg 81%
    10:00 -4°C° 0 mm 4 m/s 760 mmHg 79%
    11:00 -4°C° 0 mm 5 m/s 760 mmHg 77%
    12:00 -4°C° 0 mm 5 m/s 759 mmHg 75%
    13:00 -4°C° 0 mm 5 m/s 759 mmHg 73%
    14:00 -4°C° 0 mm 5 m/s 758 mmHg 74%
    15:00 -4°C° 0 mm 5 m/s 758 mmHg 75%
    16:00 -5°C° 0 mm 5 m/s 757 mmHg 75%
    17:00 -5°C° 0 mm 5 m/s 757 mmHg 76%
    18:00 -5°C° 0 mm 6 m/s 757 mmHg 77%
    19:00 -5°C° 0 mm 6 m/s 757 mmHg 78%
    20:00 -5°C° 0 mm 6 m/s 756 mmHg 78%
    21:00 -4°C° 0 mm 6 m/s 756 mmHg 78%
    22:00 -4°C° 0 mm 6 m/s 756 mmHg 79%
    23:00 -4°C° 0 mm 5 m/s 755 mmHg 79%

    17 Dezembro, Segunda-feira

    Tempo Temperatura Precipitação Vento Pressão Humidade
    00:00 -4°C° 0 mm 5 m/s 755 mmHg 79%
    01:00 -4°C° 0 mm 5 m/s 754 mmHg 79%
    02:00 -4°C° 0 mm 5 m/s 754 mmHg 80%
    03:00 -4°C° 0 mm 5 m/s 753 mmHg 80%
    04:00 -4°C° 0 mm 5 m/s 752 mmHg 80%
    05:00 -5°C° 0 mm 5 m/s 752 mmHg 81%
    06:00 -5°C° 0 mm 5 m/s 751 mmHg 82%
    07:00 -4°C° 0 mm 4 m/s 751 mmHg 83%
    08:00 -4°C° 0.3 mm 4 m/s 750 mmHg 85%
    09:00 -3°C° 0.3 mm 4 m/s 750 mmHg 86%
    10:00 -3°C° 0.3 mm 4 m/s 750 mmHg 88%
    11:00 -3°C° 0.8 mm 4 m/s 749 mmHg 90%
    12:00 -3°C° 0.8 mm 4 m/s 749 mmHg 91%
    13:00 -3°C° 0.8 mm 4 m/s 748 mmHg 93%
    14:00 -2°C° 0.8 mm 3 m/s 748 mmHg 94%
    15:00 -2°C° 0.8 mm 2 m/s 747 mmHg 94%
    16:00 -2°C° 0.8 mm 2 m/s 747 mmHg 95%
    17:00 -2°C° 0.2 mm 2 m/s 747 mmHg 95%
    18:00 -2°C° 0.2 mm 2 m/s 747 mmHg 95%
    19:00 -2°C° 0.2 mm 2 m/s 747 mmHg 95%
    20:00 -3°C° 0 mm 2 m/s 747 mmHg 95%
    21:00 -3°C° 0 mm 2 m/s 748 mmHg 95%
    22:00 -3°C° 0 mm 2 m/s 748 mmHg 95%
    23:00 -3°C° 0 mm 2 m/s 748 mmHg 95%
    Mostrar mais